Location: ??????
(38.0677°N, 22.9870°E)
Time: 16:55:45
(UTC+00:00)

Cosmos 2327 Rocket - Pass Details

Date: 23 May 2024
Orbit: 943 x 1008 km, 83.0° (Epoch: 23 June)

Event Time Altitude Azimuth Distance (km) Brightness Sun altitude
Exits shadow 02:12:28 - 192° (SSW) 3,289 6.8 -10.6°
Reaches altitude 10° 02:14:00 10° 194° (SSW) 2,709 6.4 -10.4°
Maximum altitude 02:20:11 71° 278° (W) 1,015 4.5 -9.4°
Drops below altitude 10° 02:26:19 10° 2° (N) 2,685 7.4 -8.4°
Sets 02:28:49 0° 5° (N) 3,628 8.1 -8.0°
